Terug naar catalogus

FENGYUN 1C DEB

ActiefPO
NORAD 31364·DEBRIS·🇨🇳 China

Gelanceerd May 10, 1999 vanaf Taiyuan Satellite Launch Center

Loading…

Volgende Passages (komende 24 uur)

TLE

VersSource: Space-Track

Epoch: Sep 14, 2026, 07:50 UTC

1 31364U 99025BRU 26257.32645031  .00003059  00000-0  14774-2 0  9990
2 31364  99.2702  33.0072 0090666  93.2387 267.9164 14.17232747987773

Volg FENGYUN 1C DEB in realtime met AllMySat

Download on the App Store